www.pogodaiklimat.ru

Погода и климат >> Архив погоды >> Болгария >> Бургас


ПОГОДА в Бургасе

  • Прогноз погоды в Бургасе
  • Монитор погоды в Бургасе

АРХИВ ПОГОДЫ в Бургасе

Время (UTC), дата Ветер
(напр.,м/с)
 
Видим.   Явления Облачность Т
(С)
Тd
(С)
f
(%)
Тe
(С)
Тes
(С)
Комфортность P
(гПа)
Po
(гПа)
Тmin
(С)
Tmax
(С)
R
(мм)
R24
(мм)
S
(см)
06 10.09 С 2 20 км 10/1 600 м
[Sc Ci]
+20.4 1015.7 1012.5 +18.8 +23.5
09 10.09 СВ 10 18 км 9/6 600 м
[Cu med, cong Ac trans Ci fib]
+25.2 +17.9 64 +30 +30 душно 1016.2 1013.1 +20.4 +25.2
12 10.09 В 12
{16}
18 км 10/4 600 м
[Cu med, cong Cs]
+24.6 1016.2 1013.1 +20.4 +25.7
15 10.09 СВ 14
{18}
20 км 10/3 600 м
[Cu hum Cs]
+24.0 +17.9 69 +28 +28 душно 1016.1 1013.0 +20.4 +25.7
18 10.09 СВ 14
{18}
18 км 8/8 600 м
[Cu med, cong]
+23.5 1016.3 1013.2 +25.4 +25.7
21 10.09 СВ 10
{18}
18 км 4/4 600 м
[St]
+22.4 +17.4 73 +27 +27 душно 1017.1 1014.0 +22.4 +23.5
00 11.09 СВ 4
{18}
18 км 3/3 600 м
[Sc]
+19.2 1017.5 1014.3 +19.2 +23.5
03 11.09 СЗ 4 18 км 1/1 600 м
[Cu hum]
+18.6 +14.1 75 +19 +19 1017.5 1014.3 +18.6 +23.5
06 11.09 СЗ 6 18 км 6/4 600 м
[Cu med, cong Ci fib]
+21.6 1018.3 1015.1 +18.4 +23.5
09 11.09 СВ 10 20 км 8/6 600 м
[Cu med, cong Ci fib]
+24.6 +17.5 65 +29 +29 душно 1019.1 1016.0 +21.6 +24.6
12 11.09 СВ 12 20 км 8/6 600 м
[Cu med, cong Ci fib]
+25.0 1019.5 1016.4 +21.6 +25.1
15 11.09 СВ 12 20 км 8/4 600 м
[Cu med, cong Ci fib]
+24.0 +17.9 69 +28 +28 душно 1019.6 1016.5 +21.6 +25.1
18 11.09 СВ 12 18 км 6/3 600 м
[Cu hum Ci fib]
+23.2 1020.7 1017.6 +21.6 +25.1
21 11.09 С 5 18 км 4/3 600 м
[Cu hum Ci fib]
+20.4 +14.6 69 +23 +23 комфорт 1020.9 1017.7 +20.4 +23.3
00 12.09 СЗ 5 18 км ясно +19.4 1020.6 1017.4 +19.4 +23.3
03 12.09 СЗ 4 18 км ясно +18.7 +14.7 78 +19 +19 1020.7 1017.5 +18.7 +23.3
06 12.09 штиль 0 18 км 9/5 600 м
[Cu med, cong Ac trans Ci fib]
+19.8 1021.0 1017.8 +18.5 +23.3
09 12.09 С 10 18 км 10/10 600 м
[Cb calv]
+23.4 +17.6 70 +29 +29 душно 1021.1 1018.0 +19.8 +23.5
12 12.09 С 10 18 км 10/10 600 м
[Cu med, cong]
+24.7 1020.8 1017.7 +19.8 +25.2
15 12.09 СВ 8 18 км 9/3 600 м
[Cu med, cong Ac trans Ci fib]
+24.4 +18.4 69 +29 +29 душно 1020.7 1017.6 +19.8 +25.2
18 12.09 С 10 18 км 8/3 600 м
[Cu med, cong Ci fib]
1021.6 1018.5 +19.8 +25.2
21 12.09 С 4 18 км 3/0
[Ci fib]
+20.8 +12.2 58 +23 +23 комфорт 1021.8 1018.6 +20.7 +23.8
00 13.09 В 6 18 км 3/0
[Ci fib]
+20.4 1021.3 1018.1 +20.4 +23.8
03 13.09 СВ 8 18 км ясно +20.0 +12.5 62 +21 +21 комфорт 1021.2 1018.0 +19.8 +23.8
06 13.09 С 12
{16}
18 км 10/3 600 м
[Sc Ci]
+22.2 1021.9 1018.7 +19.8 +23.8
09 13.09 С 16
{20}
18 км 10/3 600 м
[Cu med, cong Ac lent Ci]
+24.6 +15.3 56 +28 +28 душно 1022.5 1019.4 +22.2 +24.6
12 13.09 С 12
{20}
20 км 8/3 600 м
[Cu hum Ac trans Ci fib]
+25.2 1022.0 1018.9 +22.2 +25.6
15 13.09 С 12
{16}
20 км 4/1 600 м
[Cu hum Ci fib]
+24.6 +13.7 51 +27 +27 жарко 1022.1 1019.0 +22.2 +25.6
18 13.09 С 10
{16}
20 км 3/3 600 м
[Cu hum]
+23.8 1021.9 1018.8 +22.2 +25.6
21 13.09 СЗ 2 20 км ясно +20.6 +10.4 52 +23 +23 комфорт 1022.4 1019.2 +20.6 +23.8
00 14.09 СЗ 2 18 км ясно +20.3 1022.8 1019.6 +20.3 +23.8
03 14.09 С 4 18 км ясно +16.8 +11.0 69 +16 +16 1022.3 1019.1 +16.8 +23.8
06 14.09 ЮЗ 1 18 км ясно +17.0 1022.5 1019.3 +15.6 +23.8
09 14.09 Ю 1 18 км ясно +25.8 +10.6 38 +27 +40 жарко 1022.2 1019.1 +16.9 +25.8
12 14.09 В 10 18 км 1/1 600 м
[Cu hum]
+25.4 1021.9 1018.8 +16.9 +26.1
15 14.09 В 7 18 км ясно +24.3 +15.1 56 +27 +27 жарко 1021.1 1018.0 +16.9 +26.1
18 14.09 С 3 18 км 3/3 600 м
[Sc Ci fib]
+23.2 1021.8 1018.6 +16.9 +26.1
21 14.09 С 2 18 км ясно +21.4 +15.0 67 +25 +25 комфорт 1023.0 1019.8 +21.4 +23.2
00 15.09 С 10 18 км 8/8 600 м
[Sc]
+21.8 1023.3 1020.1 +21.4 +23.2
03 15.09 С 12
{16}
18 км 8/8 600 м
[Sc]
+20.6 +13.6 64 +22 +22 комфорт 1023.6 1020.4 +20.6 +23.2
06 15.09 С 10
{16}
20 км 8/8 600 м
[Cu med, cong]
+20.3 1025.3 1022.1 +19.8 +23.2
09 15.09 СВ 7 20 км 8/8 600 м
[Sc]
+23.9 +11.6 46 +25 +26 комфорт 1025.7 1022.5 +20.3 +24.1
12 15.09 В 12
{16}
20 км 6/4 600 м
[Sc Ci fib]
+22.8 1024.5 1021.3 +20.3 +24.4
15 15.09 В 12
{16}
25 км ясно +22.0 +13.9 60 +25 +25 комфорт 1023.5 1020.3 +20.3 +24.4
18 15.09 В 9
{16}
20 км ясно +21.4 1022.8 1019.6 +20.3 +24.4
21 15.09 В 3 18 км ясно +19.8 +14.3 71 +22 +22 комфорт 1022.6 1019.4 +19.8 +21.5
00 16.09 З 3 18 км ясно +18.0 1021.2 1018.0 +18.0 +21.5
03 16.09 ЮЗ 2 18 км ясно +15.0 +11.6 80 +15 +15 1020.1 1016.9 +15.0 +21.5
06 16.09 ЮЗ 2 18 км ясно +15.6 1019.9 1016.7 +14.6 +21.5
09 16.09 Ю 2 20 км ясно +22.4 +13.8 58 +26 +37 жарко 1018.6 1015.4 +15.6 +22.4
12 16.09 В 6 20 км 4/0
[Ci fib]
+25.0 1016.5 1013.4 +15.6 +26.1
15 16.09 В 10 20 км 8/0
[Ci]
+23.6 +15.7 61 +27 +27 жарко 1014.8 1011.7 +15.6 +26.1
18 16.09 В 5 18 км ясно +20.9 1014.8 1011.6 +15.6 +26.1
21 16.09 З 2 18 км 6/0
[Ci fib]
+18.8 +13.1 69 +20 +20 1014.9 1011.7 +18.8 +20.9
00 17.09 ЮЗ 3 18 км 6/0
[Ci fib]
+17.3 1014.4 1011.2 +17.3 +20.9

 

Местоположение метеостанции Бургас (Болгария): широта 42.48 долгота 27.48 высота над уровнем моря 28 м.

В архиве по умолчанию представлена погода в Бургасе за последнюю неделю. Архивные данные за месяц целиком и за предыдущие месяцы, начиная с января 2011 года, Вы можете получить, выбрав интересующий диапазон дат из раскрывающегося списка и нажав кнопку "Ввод!".


*Определитесь, кто Вы:
робот инопланетянин человек

Внимание! Время в таблицах - всемирное. Для получения местного времени необходимо прибавить поправку, которая равна 2 ч.

Смотрите также архив погоды в соседних городах и на ближайших метеорологических станциях:

Погода в Кыркларели (Турция) (86 км)
Погода в Варне (Болгария) (88 км)
Погода в Сливене (Болгария) (97 км)
Погода в Эдирне (Турция) (117 км)
Погода в Разграде (Болгария) (139 км)
Погода в Текирдаге (Турция) (167 км)
Погода в Стамбул Новом аэропорту (Турция) (171 км)
Погода в Мангалии (Румыния) (174 км)
Погода в Кумкое (Турция) (182 км)
Погода в Адамклиси (Румыния) (182 км)

Пояснения к столбцам:

Ветер - указаны скорость ветра в м/с - средняя за 10 мин, порывы в срок и между сроками (в фигурных скобках) и направление, откуда дует ветер: С - северный, СВ - северо-восточный, В - восточный, ЮВ - юго-восточный, Ю - южный, ЮЗ - юго-западный, З - западный, СЗ - северо-западный.
Видимость - горизонтальная дальность видимости в метрах или километрах. При видимости от 1 до 10 км при отсутствии осадков обычно наблюдается дымка, при ухудшении видимости до 1 км и менее - туман. В сухую погоду видимость может ухудшаться дымом, пылью или мглою.
Явления - указаны атмосферные явления, наблюдавшиеся в срок или в последний час перед сроком; фигурными скобками обозначены явления, наблюдавшиеся между сроками (за 1-3 часа до срока); квадратными скобками обозначены град или гололедные отложения с указанием их диаметра в мм.
Облачность - указаны через наклонную черту общая и нижняя облачность в баллах и высота нижней границы облаков в метрах; квадратными скобками обозначены формы облаков: Ci - перистые, Cs - перисто-слоистые, Cc - перисто-кучевые, Ac - высококучевые, As - высокослоистые, Sc - слоисто-кучевые, Ns - слоисто-дождевые, Cu - кучевые, Cb - кучево-дождевые. Подробнее классификацию облаков см. в Атласе облаков (PDF).
T - Температура воздуха - температура, измеренная на высоте 2 м над землей.
Td - Температура точки росы - температура, при понижении до которой содержащийся в воздухе водяной пар достигнет насыщения.
f - Относительная влажность воздуха - влажноcть воздуха, измеренная на высоте 2 м над землей.
Te - Эффективная температура - температура, которую ощущает одетый по сезону человек в тени. Характеристика душности погоды. При расчете учитывается влияние влажности воздуха и скорости ветра на теплоощущения человека.
Tes - Эффективная температура на солнце - температура, которую ощущает человек, с поправкой на солнечный нагрев. Характеристика знойности погоды. Зависит от высоты солнца над горизонтом, облачности и скорости ветра. Ночью, в пасмурную погоду, а также при ветре 12 м/с и более поправка равна нулю.
P - Атмосферное давление - приведенное к уровню моря атмосферное давление.
Po - Атмосферное давление - измеренное на уровне метеостанции атмосферное давление.
Tmin - Минимальная температура - минимум температуры воздуха на высоте 2 м над землей.
Tmax - Максимальная температура - максимум температуры воздуха на высоте 2 м над землей.
R - Количество осадков - Количество выпавших осадков за период времени, мм. При наведении курсора мыши на число - период времени, за который выпало указанное количество осадков.
R24 - Количество осадков - Количество выпавших осадков за 24 часа, мм.
S - Снежный покров - Высота снежного покрова, см. При наведении курсора мыши на число - состояние снежного покрова и степень покрытия местности в баллах.